map of SMA home
SMA - Airport
Location
City:  Santa Maria, Região Autónoma dos Açores (Azores), Portugal
ICAO:LPAZ
IATA:SMA

Details
Type:Airport (Aerodrome, Airfield)
Use:Public/Civil, International (customs port of entry)
Latitude:36°58'17"N (36.971390)
Longitude:25°10'14"W (-25.170638)
Datum:WGS 1984
Elevation:308 ft (94 m)
Variation:7.86°W (WMM2015v2 magnetic declination)
0.17° annual change
Runways:3
Longest:10000 × 197 ft (3048 × 60 m), paved

Time
Time Zone:UTC-1 (DST+0)
Local Time:

Weather
METAR:LPAZ 041400Z 19015KT 9999 FEW018 19/14 Q1024
TAF:LPAZ 041100Z 0412/0518 18013KT 9999 SCT018
TEMPO 0412/0503 FEW020 BKN040
BECMG 0503/0506 SCT006 BKN012
TEMPO 0506/0518 3000 RADZ BR SCT003 BKN006
BECMG 0510/0512 01010KT

Related Locations
Nearby:
Farthest:YJBY: 12177 mi / 19597 km
Jervis Bay, NSW, AU

Find:

   beyond  
but within

Other Information
Maps:
NOTAMs:
Links:
Sources:

  
  • flag of Portugal
  • flag of Região Autónoma dos Açores (Azores)
  

Sectional Chart

Flight Planning
at skyvector.com

Satellite Image

Google Maps Satellite view

 

Copyright © 2004-2019 Karl L. Swartz. All rights reserved.
The Great Circle Mapper name and logo are trademarks of the Great Circle Mapper.
All other trademarks mentioned herein belong to their respective owners.
Please see credits for attibutions and further copyright information.

  Follow gcmap on Facebook Follow gcmap on Twitter GCmap on LinkedIn

hCard Microformat

Geo Microformat